GW0049 Weather Reports


Display with metric or nautical units.
time (UTC)temp
F
wind
direction
speed
MPH
gust
MPH
rain 1hr
in
rain 24hr
in
rain mn
in
humidity
%
barometer
mb
20260506170528 62 266 1.0 5.0 0.00 0.00 0.00 72 1020.2
20260506170100 61 305 1.0 5.0 0.00 0.00 0.00 73 1020.2
20260506165528 61 191 0.0 3.0 0.00 0.05 0.00 73 1020.2
20260506165027 61 217 1.0 6.0 0.00 0.05 0.00 74 1020.2
20260506164551 60 249 1.0 6.0 0.00 0.05 0.00 74 1020.2
20260506164027 60 234 0.0 7.0 0.00 0.05 0.00 76 1020.2
20260506163527 60 276 3.0 7.0 0.00 0.05 0.00 74 1020.3
20260506163050 60 0 1.0 6.0 0.00 0.05 0.00 75 1020.3
20260506162527 59 269 2.0 4.0 0.00 0.05 0.00 75 1020.3
20260506162027 60 266 1.0 4.0 0.00 0.05 0.00 75 1020.3
20260506161540 60 0 0.0 4.0 0.00 0.05 0.00 76 1020.2
20260506161028 60 74 0.0 2.0 0.00 0.05 0.00 76 1020.2
20260506160527 59 24 0.0 4.0 0.00 0.05 0.00 76 1020.2
20260506160042 59 0 0.0 4.0 0.00 0.05 0.00 76 1020.2
20260506155527 59 74 1.0 4.0 0.00 0.05 0.00 77 1020.3
20260506155027 59 58 0.0 4.0 0.00 0.05 0.00 77 1020.2
20260506154604 58 55 1.0 4.0 0.00 0.05 0.00 77 1020.2
20260506154027 58 0 1.0 4.0 0.00 0.05 0.00 77 1020.2
20260506153526 58 0 0.0 2.0 0.00 0.05 0.00 78 1020.3
20260506153040 58 0 0.0 3.0 0.00 0.05 0.00 78 1020.3
20260506152526 58 53 0.0 3.0 0.00 0.05 0.00 78 1020.3
20260506152027 58 0 1.0 3.0 0.00 0.05 0.00 78 1020.3
20260506151541 58 327 0.0 2.0 0.00 0.05 0.00 79 1020.2
20260506151027 58 45 0.0 3.0 0.00 0.05 0.00 79 1020.2
20260506150526 57 54 0.0 4.0 0.00 0.05 0.00 79 1020.2
20260506150039 57 0 1.0 4.0 0.00 0.05 0.00 79 1020.3
20260506145530 58 26 1.0 3.0 0.00 0.05 0.00 79 1020.2
20260506145028 57 22 1.0 2.0 0.00 0.05 0.00 79 1020.2
20260506144544 57 0 0.0 2.0 0.00 0.05 0.00 79 1020.2
20260506144027 57 15 0.0 2.0 0.00 0.05 0.00 79 1020.1
20260506143527 57 0 0.0 3.0 0.00 0.05 0.00 80 1020.1
20260506143043 57 10 0.0 3.0 0.00 0.05 0.00 80 1020.0
20260506142527 57 33 1.0 3.0 0.00 0.05 0.00 80 1020.0
20260506142026 57 0 0.0 3.0 0.00 0.05 0.00 80 1020.0
20260506141539 57 27 1.0 3.0 0.00 0.05 0.00 80 1019.9
20260506141027 57 0 0.0 2.0 0.00 0.05 0.00 80 1019.9
20260506140527 57 0 0.0 3.0 0.00 0.05 0.00 81 1019.9
20260506140040 57 0 0.0 3.0 0.00 0.05 0.00 81 1019.8
20260506135526 57 11 1.0 3.0 0.00 0.05 0.00 80 1019.8
20260506135029 57 0 0.0 3.0 0.00 0.05 0.00 81 1019.8
20260506134539 57 38 1.0 3.0 0.00 0.05 0.00 80 1019.7
20260506134026 57 5 0.0 3.0 0.00 0.05 0.00 80 1019.6
20260506133527 57 355 0.0 3.0 0.00 0.05 0.00 80 1019.5
20260506133052 57 0 1.0 3.0 0.00 0.05 0.00 80 1019.4
20260506132527 57 355 0.0 2.0 0.00 0.05 0.00 80 1019.4
20260506132030 57 334 1.0 3.0 0.00 0.05 0.00 80 1019.4
20260506131537 57 316 0.0 3.0 0.00 0.05 0.00 80 1019.4
20260506131027 57 306 1.0 3.0 0.00 0.05 0.00 80 1019.3
20260506130531 57 303 1.0 3.0 0.00 0.05 0.00 81 1019.2
20260506130038 57 9 1.0 3.0 0.00 0.05 0.00 81 1019.3
20260506125526 57 336 0.0 1.0 0.00 0.05 0.00 81 1019.2
20260506125027 57 0 0.0 2.0 0.00 0.05 0.00 81 1019.1
20260506124540 57 0 0.0 2.0 0.00 0.05 0.00 81 1019.1
20260506124027 57 0 0.0 2.0 0.00 0.05 0.00 81 1019.0
20260506123526 57 0 0.0 1.0 0.00 0.05 0.00 81 1019.0
20260506123040 56 0 0.0 3.0 0.00 0.05 0.00 81 1018.9
20260506122527 56 355 0.0 3.0 0.00 0.05 0.00 81 1019.0
20260506122030 56 12 0.0 3.0 0.00 0.05 0.00 81 1018.9
20260506121538 57 0 0.0 3.0 0.00 0.05 0.00 81 1018.9
20260506121027 57 360 1.0 3.0 0.00 0.05 0.00 81 1018.9
20260506120527 57 28 0.0 3.0 0.00 0.05 0.00 81 1018.8
20260506120044 57 10 1.0 3.0 0.00 0.05 0.00 80 1018.8
20260506115527 57 0 0.0 2.0 0.00 0.06 0.00 80 1018.8
20260506115026 57 11 0.0 2.0 0.00 0.06 0.00 80 1018.8
20260506114547 57 348 0.0 3.0 0.00 0.06 0.00 80 1018.7
20260506114027 57 0 0.0 3.0 0.00 0.06 0.00 80 1018.8
20260506113530 57 342 0.0 3.0 0.00 0.06 0.00 80 1018.8
20260506113041 57 0 0.0 2.0 0.00 0.06 0.00 80 1018.7
20260506112527 57 0 0.0 3.0 0.00 0.06 0.00 80 1018.6
20260506112026 57 314 0.0 3.0 0.00 0.06 0.00 80 1018.6
20260506111539 57 0 0.0 3.0 0.00 0.06 0.00 80 1018.5
20260506111026 57 0 0.0 3.0 0.00 0.06 0.00 80 1018.5
20260506110526 57 0 0.0 2.0 0.00 0.06 0.00 80 1018.5
20260506110043 57 323 0.0 2.0 0.00 0.06 0.00 81 1018.5
20260506105527 57 349 0.0 2.0 0.00 0.08 0.00 81 1018.5
20260506105026 57 0 0.0 2.0 0.00 0.08 0.00 82 1018.5
20260506104559 57 0 0.0 2.0 0.00 0.08 0.00 82 1018.4
20260506104031 57 0 0.0 2.0 0.00 0.08 0.00 82 1018.4
20260506103531 57 340 0.0 2.0 0.00 0.08 0.00 82 1018.3
20260506103040 57 0 0.0 2.0 0.00 0.08 0.00 82 1018.3
20260506102529 57 0 0.0 2.0 0.00 0.08 0.00 82 1018.4
20260506102027 57 15 0.0 2.0 0.00 0.08 0.00 82 1018.3
20260506101547 57 26 0.0 1.0 0.00 0.08 0.00 82 1018.4
20260506101028 57 0 0.0 2.0 0.00 0.08 0.00 82 1018.4
20260506100526 57 0 0.0 2.0 0.00 0.08 0.00 82 1018.4
20260506100044 57 28 0.0 2.0 0.00 0.08 0.00 82 1018.4
20260506095527 57 0 0.0 0.0 0.00 0.08 0.00 81 1018.4
20260506095027 57 0 0.0 0.0 0.00 0.08 0.00 81 1018.3
20260506094540 57 0 0.0 0.0 0.00 0.08 0.00 81 1018.3
20260506094026 57 0 0.0 0.0 0.00 0.08 0.00 81 1018.3
20260506093526 57 0 0.0 1.0 0.00 0.08 0.00 81 1018.2
20260506093038 57 0 0.0 1.0 0.00 0.08 0.00 80 1018.3
20260506092526 57 0 0.0 1.0 0.00 0.08 0.00 80 1018.4
20260506092027 57 0 0.0 3.0 0.00 0.08 0.00 80 1018.3
20260506091536 57 0 0.0 3.0 0.00 0.08 0.00 79 1018.3
20260506091030 57 288 0.0 2.0 0.00 0.08 0.00 79 1018.4
20260506090530 57 342 0.0 3.0 0.00 0.08 0.00 79 1018.4
20260506090046 57 350 0.0 3.0 0.00 0.08 0.00 79 1018.4
20260506085529 57 321 1.0 3.0 0.00 0.08 0.00 79 1018.4
20260506085027 57 315 1.0 3.0 0.00 0.08 0.00 79 1018.4
20260506084542 57 0 0.0 1.0 0.00 0.08 0.00 79 1018.4
20260506084031 57 0 0.0 1.0 0.00 0.08 0.00 79 1018.4
20260506083527 57 0 0.0 3.0 0.00 0.08 0.00 79 1018.4
20260506083043 57 0 0.0 3.0 0.00 0.08 0.00 79 1018.4
20260506082526 57 344 0.0 3.0 0.00 0.08 0.00 79 1018.5
20260506082026 57 341 0.0 2.0 0.00 0.08 0.00 79 1018.6
20260506081541 57 0 0.0 2.0 0.00 0.08 0.00 79 1018.6
20260506081029 57 311 0.0 2.0 0.00 0.08 0.00 79 1018.5
20260506080526 57 322 0.0 2.0 0.00 0.08 0.00 79 1018.6
20260506073042 57 303 1.0 4.0 0.00 0.08 0.00 80 1018.3
20260506072527 57 290 1.0 5.0 0.00 0.08 0.00 80 1018.3
20260506072026 57 291 2.0 5.0 0.00 0.08 0.00 80 1018.2
20260506071541 57 300 1.0 4.0 0.00 0.08 0.00 79 1018.2
20260506071026 57 299 1.0 4.0 0.00 0.08 0.00 79 1018.1
20260506070526 57 339 2.0 4.0 0.00 0.08 0.00 79 1018.1
20260506062027 58 0 0.0 4.0 0.00 0.08 0.08 78 1018.0
20260506061537 58 309 1.0 6.0 0.00 0.08 0.08 78 1017.9
20260506061028 58 288 1.0 6.0 0.00 0.08 0.08 78 1017.9
20260506060526 58 286 1.0 6.0 0.00 0.08 0.08 78 1017.9
20260506051026 58 277 2.0 7.0 0.00 0.08 0.08 80 1017.6
20260506050526 58 255 3.0 7.0 0.00 0.08 0.08 80 1017.5
20260506045026 58 265 2.0 6.0 0.00 0.08 0.08 79 1017.4
20260506044542 58 261 2.0 6.0 0.00 0.08 0.08 79 1017.3
20260506044029 58 300 2.0 6.0 0.00 0.08 0.08 79 1017.2
20260506043528 58 264 2.0 10.0 0.00 0.08 0.08 79 1017.2
20260506043048 58 253 3.0 10.0 0.00 0.08 0.08 79 1017.2
20260506042530 58 265 4.0 9.0 0.00 0.08 0.08 79 1017.2
20260506042026 58 284 3.0 8.0 0.00 0.08 0.08 79 1017.1
20260506041544 58 258 3.0 8.0 0.00 0.08 0.08 79 1017.1
20260506041026 58 274 4.0 8.0 0.00 0.08 0.08 78 1017.0
20260506040527 58 298 1.0 9.0 0.00 0.08 0.08 78 1017.0
20260506040047 58 273 3.0 9.0 0.00 0.08 0.08 78 1017.0
20260506035526 58 306 2.0 7.0 0.00 0.08 0.08 78 1016.8
20260506035026 58 265 2.0 8.0 0.00 0.08 0.08 77 1016.7
20260506034544 58 0 2.0 9.0 0.00 0.08 0.08 77 1016.6
20260506034027 58 288 4.0 9.0 0.00 0.08 0.08 77 1016.6
20260506033527 59 258 3.0 9.0 0.00 0.08 0.08 77 1016.5
20260506033043 59 306 2.0 8.0 0.00 0.08 0.08 77 1016.6
20260506032527 59 285 2.0 8.0 0.00 0.08 0.08 77 1016.5
20260506032027 59 307 3.0 9.0 0.00 0.08 0.08 77 1016.4
20260506031544 59 260 4.0 9.0 0.00 0.08 0.08 76 1016.3
20260506031027 59 255 3.0 9.0 0.00 0.08 0.08 76 1016.3
20260506030526 59 302 4.0 8.0 0.00 0.08 0.08 76 1016.2
20260506030041 59 267 2.0 9.0 0.00 0.08 0.08 76 1016.2
20260506025526 59 292 3.0 9.0 0.00 0.08 0.08 76 1016.0
20260506025026 59 305 3.0 8.0 0.00 0.08 0.08 76 1016.0
20260506024546 59 252 3.0 12.0 0.00 0.08 0.08 76 1016.1
20260506024027 60 267 5.0 12.0 0.00 0.08 0.08 75 1016.0
20260506023529 60 274 3.0 8.0 0.00 0.08 0.08 75 1015.9
20260506023038 60 286 3.0 10.0 0.00 0.08 0.08 74 1015.8
20260506022526 60 293 3.0 10.0 0.00 0.08 0.08 74 1015.8
20260506022026 60 277 3.0 8.0 0.00 0.08 0.08 73 1015.7
20260506021550 60 306 3.0 7.0 0.00 0.08 0.08 73 1015.7
20260506021026 60 327 1.0 7.0 0.00 0.08 0.08 73 1015.6
20260506020530 60 290 2.0 7.0 0.00 0.08 0.08 73 1015.6
20260506020041 60 313 2.0 5.0 0.00 0.08 0.08 73 1015.6
20260506015527 60 304 2.0 7.0 0.00 0.08 0.08 73 1015.6
20260506015027 60 279 2.0 7.0 0.00 0.08 0.08 73 1015.5
20260506014542 61 237 2.0 7.0 0.00 0.08 0.08 73 1015.5
20260506014026 61 313 2.0 7.0 0.00 0.08 0.08 72 1015.4
20260506013526 61 251 2.0 9.0 0.00 0.08 0.08 72 1015.5
20260506013044 61 295 3.0 9.0 0.00 0.08 0.08 72 1015.5
20260506012527 61 267 4.0 9.0 0.00 0.08 0.08 72 1015.5
20260506012028 61 267 4.0 9.0 0.00 0.08 0.08 72 1015.5
20260506011545 61 253 2.0 9.0 0.00 0.08 0.08 72 1015.5
20260506011030 61 261 3.0 8.0 0.00 0.08 0.08 72 1015.5
20260506010526 61 262 2.0 7.0 0.00 0.08 0.08 72 1015.5
20260506010047 61 259 3.0 8.0 0.00 0.08 0.08 72 1015.5
20260506005526 61 247 2.0 8.0 0.00 0.08 0.08 71 1015.5
20260506005031 61 292 2.0 9.0 0.00 0.08 0.08 71 1015.5
20260506004544 61 264 4.0 9.0 0.00 0.08 0.08 71 1015.4
20260506004026 61 285 4.0 8.0 0.00 0.08 0.08 71 1015.4
20260506003527 62 279 4.0 8.0 0.00 0.08 0.08 70 1015.4
20260506003042 62 284 3.0 9.0 0.00 0.08 0.08 70 1015.4
20260506002530 62 292 3.0 9.0 0.00 0.08 0.08 69 1015.3
20260506002027 62 277 4.0 9.0 0.00 0.08 0.08 69 1015.3
20260506001542 62 264 4.0 11.0 0.00 0.08 0.08 70 1015.2
20260506001027 62 275 4.0 11.0 0.00 0.08 0.08 70 1015.2
20260506000527 62 309 4.0 10.0 0.00 0.08 0.08 69 1015.1
20260506000039 62 277 3.0 7.0 0.00 0.08 0.08 69 1015.1
20260505235526 62 265 2.0 7.0 0.00 0.08 0.08 69 1015.1
20260505235026 62 292 3.0 10.0 0.00 0.08 0.08 69 1015.1
20260505234602 62 233 5.0 11.0 0.00 0.08 0.08 69 1015.1
20260505234026 62 267 3.0 11.0 0.00 0.08 0.08 70 1015.2
20260505233526 62 288 4.0 10.0 0.00 0.08 0.08 70 1015.2
20260505233038 62 281 5.0 10.0 0.00 0.08 0.08 70 1015.1
20260505232602 62 277 1.0 8.0 0.00 0.08 0.08 71 1015.2
20260505232026 62 265 3.0 8.0 0.00 0.08 0.08 70 1015.2
20260505231538 62 254 1.0 5.0 0.00 0.08 0.08 71 1015.2
20260505231025 62 296 2.0 8.0 0.00 0.08 0.08 71 1015.2
20260505230525 62 311 3.0 8.0 0.00 0.08 0.08 71 1015.2
20260505230042 62 279 2.0 8.0 0.00 0.08 0.08 71 1015.3
20260505225526 62 277 4.0 8.0 0.00 0.08 0.08 70 1015.2
20260505225026 62 271 2.0 10.0 0.00 0.08 0.08 70 1015.2
20260505224540 62 288 2.0 10.0 0.00 0.08 0.08 70 1015.2
20260505224025 62 304 4.0 10.0 0.00 0.08 0.08 70 1015.2
20260505223526 62 290 3.0 7.0 0.00 0.08 0.08 69 1015.3
20260505223044 62 270 3.0 8.0 0.00 0.08 0.08 71 1015.3
20260505222525 61 325 2.0 9.0 0.00 0.08 0.08 71 1015.2
20260505222026 61 0 3.0 9.0 0.00 0.08 0.08 71 1015.3
20260505221539 61 268 3.0 8.0 0.00 0.08 0.08 70 1015.3
20260505221025 61 259 3.0 8.0 0.00 0.08 0.08 72 1015.4
20260505220526 61 252 3.0 9.0 0.00 0.08 0.08 72 1015.5
20260505220040 61 0 4.0 12.0 0.00 0.08 0.08 71 1015.4
20260505215528 61 277 5.0 12.0 0.00 0.08 0.08 71 1015.5
20260505215026 61 259 3.0 9.0 0.00 0.08 0.08 71 1015.6
20260505214549 61 279 4.0 9.0 0.00 0.08 0.08 71 1015.5
20260505214028 61 252 3.0 9.0 0.00 0.08 0.08 71 1015.6
20260505213525 61 278 3.0 9.0 0.00 0.08 0.08 71 1015.7
20260505213043 61 257 3.0 7.0 0.00 0.08 0.08 71 1015.7
20260505212525 61 265 2.0 7.0 0.00 0.08 0.08 71 1015.7
20260505212031 61 277 3.0 8.0 0.00 0.08 0.08 71 1015.6
20260505211549 61 267 2.0 8.0 0.00 0.08 0.08 72 1015.7
20260505211028 61 258 3.0 9.0 0.00 0.08 0.08 71 1015.7
20260505210530 61 281 2.0 9.0 0.00 0.08 0.08 72 1015.8
20260505210040 61 269 4.0 11.0 0.00 0.08 0.08 71 1015.7
20260505205526 61 208 5.0 11.0 0.00 0.08 0.08 72 1015.6
20260505205024 61 248 3.0 9.0 0.00 0.08 0.08 72 1015.7
20260505204539 61 286 3.0 9.0 0.00 0.08 0.08 71 1015.7
20260505204026 61 282 4.0 9.0 0.00 0.08 0.08 71 1015.7
20260505203527 62 279 4.0 10.0 0.00 0.08 0.08 71 1015.8
20260505203055 62 299 3.0 12.0 0.00 0.08 0.08 71 1015.7
20260505202526 61 213 4.0 12.0 0.00 0.08 0.08 72 1015.6
20260505202109 61 259 5.0 12.0 0.00 0.08 0.08 72 1015.7
20260505201542 61 223 4.0 9.0 0.00 0.08 0.08 73 1015.7
20260505201027 61 253 4.0 11.0 0.00 0.08 0.08 73 1015.8
20260505200526 61 221 5.0 11.0 0.00 0.08 0.08 73 1015.8
20260505200039 61 210 5.0 10.0 0.00 0.08 0.08 73 1015.8
20260505195526 61 231 3.0 10.0 0.00 0.08 0.08 74 1015.9
20260505195029 61 255 4.0 12.0 0.00 0.08 0.08 73 1015.9
20260505194543 61 313 5.0 12.0 0.00 0.08 0.08 73 1015.9
20260505194027 61 273 6.0 12.0 0.00 0.08 0.08 72 1015.8
20260505193529 61 238 3.0 10.0 0.00 0.08 0.08 74 1015.8
20260505193038 61 260 5.0 11.0 0.00 0.08 0.08 75 1015.9
20260505192526 60 0 3.0 11.0 0.00 0.08 0.08 76 1015.9
20260505192028 60 274 4.0 10.0 0.00 0.08 0.08 76 1015.8
20260505191543 60 233 3.0 10.0 0.00 0.08 0.08 78 1015.9
20260505191027 59 229 4.0 10.0 0.00 0.08 0.08 78 1015.9
20260505190526 59 284 6.0 10.0 0.00 0.08 0.08 78 1015.8
20260505190042 59 244 4.0 9.0 0.00 0.08 0.08 78 1015.8
20260505185526 60 271 2.0 10.0 0.00 0.08 0.08 79 1015.7
20260505185027 60 247 5.0 10.0 0.00 0.08 0.08 78 1015.7
20260505184548 60 245 4.0 9.0 0.00 0.08 0.08 79 1015.7
20260505184027 60 263 4.0 10.0 0.00 0.08 0.08 80 1015.7
20260505183527 59 223 5.0 11.0 0.00 0.08 0.08 81 1015.5
20260505183043 59 212 3.0 11.0 0.00 0.08 0.08 82 1015.6
20260505182531 59 238 4.0 11.0 0.00 0.08 0.08 82 1015.8
20260505182026 59 277 4.0 9.0 0.00 0.08 0.08 83 1015.8
20260505181538 59 205 2.0 9.0 0.00 0.08 0.08 85 1015.7
20260505181029 58 270 4.0 9.0 0.00 0.08 0.08 85 1015.7
20260505180530 58 246 3.0 7.0 0.00 0.08 0.08 86 1015.6
20260505180036 58 250 3.0 10.0 0.00 0.08 0.08 87 1015.6
20260505175526 57 0 1.0 10.0 0.00 0.08 0.08 88 1015.6
20260505175026 57 254 2.0 7.0 0.00 0.08 0.08 89 1015.6
20260505174536 57 234 1.0 9.0 0.00 0.08 0.08 89 1015.6
20260505174026 57 259 2.0 9.0 0.01 0.08 0.08 90 1015.6
20260505173526 56 261 3.0 9.0 0.02 0.08 0.08 90 1015.5
20260505173041 56 226 4.0 9.0 0.03 0.08 0.08 90 1015.4
20260505172526 56 218 2.0 7.0 0.04 0.08 0.08 91 1015.3
20260505172028 56 246 1.0 7.0 0.04 0.08 0.08 91 1015.3
20260505171539 56 273 2.0 8.0 0.04 0.08 0.08 91 1015.3
20260505171027 55 298 2.0 8.0 0.05 0.08 0.08 92 1015.3